Torna al catalogo

STARLINK-33862

AttivoComunicazioniVLEO
NORAD 63709·PAYLOAD·🇺🇸 United States

Lanciato Apr 28, 2025 da Vandenberg Space Force Base

Loading…

Prossimi Passaggi (prossime 24 ore)

TLE

AggiornatoSource: CelesTrak SupGP

Epoca: Sep 14, 2026, 21:15 UTC

1 63709C 25087N   26257.88590278  .00060196  00000+0  17759-2 0  2575
2 63709  53.1604  59.8821 0000614  57.6284 129.0100 15.34407204    16

Traccia STARLINK-33862 in tempo reale con AllMySat

Download on the App Store